Location: Unspecified
(0.0000°N, 0.0000°E)
Time: 11:22:17
(UTC+02:00)

USA 116 - Visible Passes

Search period start: 26 April 2018 00:00
Search period end: 06 May 2018 00:00
Orbit: 405 x 834 km, 97.9° (Epoch: 18 November)

Date Brightness Start Highest point End Pass type
(mag) Time Alt. Az. Time Alt. Az. Time Alt. Az.
27 Apr 7.0 06:38:56 10° ESE 06:41:20 15° E 06:43:34 10° NE visible
27 Apr 7.4 20:19:17 10° NW 20:22:04 17° W 20:25:04 10° WSW visible
28 Apr 6.3 06:51:18 10° SE 06:54:34 23° E 06:57:32 10° NNE visible
28 Apr 7.9 20:34:00 10° WNW 20:35:19 11° W 20:36:41 10° W visible
29 Apr 5.4 07:04:02 10° SSE 07:07:47 37° E 07:11:07 10° NNE visible
30 Apr 4.2 07:17:01 10° SSE 07:20:59 61° ENE 07:24:28 10° N visible
01 May 3.5 07:30:11 10° S 07:34:09 78° WSW 07:37:38 10° NNW visible
04 May 7.1 06:36:47 10° E 06:37:49 11° E 06:38:50 10° ENE visible
04 May 7.4 20:15:17 10° NNW 20:18:48 21° W 20:22:36 10° SW visible
05 May 6.6 06:48:33 10° SE 06:51:01 18° E 06:53:21 10° NE visible
05 May 7.7 20:29:26 10° NW 20:32:03 15° W 20:34:46 10° WSW visible
